| time (UTC) | temp F | wind direction | speed knots | gust knots | rain 1hr in | rain 24hr in | rain mn in | humidity % | barometer mb |
| 20260506211536 | 43 | 342 | 0.0 | 0.0 | 0.04 | 0.56 | 0.51 | 99 | 1003.9 |
| 20260506210035 | 43 | 307 | 0.0 | 0.0 | 0.03 | 0.55 | 0.50 | 99 | 1003.9 |
| 20260506204538 | 43 | 307 | 0.0 | 0.0 | 0.04 | 0.60 | 0.49 | 99 | 1003.9 |
| 20260506203033 | 43 | 307 | 0.0 | 0.0 | 0.04 | 0.59 | 0.48 | 99 | 1003.9 |
| 20260506201532 | 43 | 307 | 0.0 | 0.0 | 0.04 | 0.57 | 0.47 | 99 | 1003.8 |
| 20260506200032 | 43 | 291 | 0.0 | 0.0 | 0.05 | 0.57 | 0.47 | 99 | 1003.8 |
| 20260506194536 | 43 | 350 | 0.0 | 0.0 | 0.04 | 0.59 | 0.45 | 99 | 1003.8 |
| 20260506193030 | 43 | 350 | 0.0 | 0.0 | 0.05 | 0.57 | 0.44 | 99 | 1003.8 |
| 20260506191528 | 43 | 350 | 0.0 | 0.0 | 0.05 | 0.56 | 0.43 | 98 | 1003.9 |
| 20260506190027 | 43 | 5 | 0.0 | 0.0 | 0.05 | 0.56 | 0.42 | 98 | 1003.8 |
| 20260506184529 | 43 | 338 | 0.0 | 0.0 | 0.06 | 0.55 | 0.41 | 99 | 1003.7 |
| 20260506183027 | 43 | 338 | 0.0 | 0.0 | 0.05 | 0.53 | 0.39 | 99 | 1003.7 |
| 20260506181523 | 44 | 338 | 0.0 | 0.0 | 0.06 | 0.52 | 0.38 | 98 | 1003.8 |
| 20260506180022 | 44 | 5 | 0.0 | 0.0 | 0.06 | 0.51 | 0.37 | 99 | 1003.9 |
| 20260506174521 | 44 | 5 | 0.0 | 0.0 | 0.06 | 0.49 | 0.35 | 98 | 1004.1 |
| 20260506173023 | 44 | 11 | 0.0 | 0.0 | 0.06 | 0.48 | 0.34 | 98 | 1004.1 |
| 20260506171525 | 45 | 335 | 0.0 | 0.0 | 0.05 | 0.46 | 0.32 | 98 | 1004.0 |
| 20260506170020 | 45 | 169 | 0.0 | 0.0 | 0.06 | 0.45 | 0.31 | 98 | 1003.9 |
| 20260506164520 | 45 | 111 | 0.0 | 0.0 | 0.05 | 0.43 | 0.28 | 98 | 1004.0 |
| 20260506163017 | 44 | 110 | 0.0 | 0.0 | 0.05 | 0.42 | 0.28 | 98 | 1003.9 |
| 20260506161512 | 45 | 46 | 0.0 | 0.0 | 0.05 | 0.41 | 0.27 | 98 | 1004.1 |
| 20260506160009 | 45 | 46 | 0.0 | 0.0 | 0.04 | 0.39 | 0.25 | 98 | 1004.4 |
| 20260506154514 | 46 | 288 | 0.0 | 0.0 | 0.05 | 0.38 | 0.24 | 99 | 1004.0 |
| 20260506153003 | 45 | 286 | 0.0 | 0.0 | 0.04 | 0.37 | 0.23 | 98 | 1004.3 |
| 20260506151600 | 46 | 313 | 0.0 | 0.0 | 0.05 | 0.36 | 0.22 | 98 | 1004.3 |
| 20260506150104 | 46 | 313 | 0.0 | 0.0 | 0.05 | 0.35 | 0.21 | 98 | 1004.4 |
| 20260506144556 | 46 | 313 | 0.0 | 0.0 | 0.04 | 0.35 | 0.19 | 98 | 1004.5 |
| 20260506143055 | 47 | 313 | 0.0 | 0.0 | 0.05 | 0.35 | 0.19 | 98 | 1004.7 |
| 20260506141555 | 47 | 313 | 0.0 | 0.0 | 0.04 | 0.33 | 0.17 | 98 | 1004.7 |
| 20260506140055 | 47 | 49 | 0.0 | 0.0 | 0.05 | 0.32 | 0.16 | 98 | 1004.4 |
| 20260506134554 | 47 | 57 | 0.0 | 0.0 | 0.05 | 0.31 | 0.15 | 98 | 1004.5 |
| 20260506133101 | 47 | 57 | 0.0 | 2.6 | 0.05 | 0.30 | 0.14 | 98 | 1004.7 |
| 20260506131559 | 47 | 92 | 0.0 | 0.0 | 0.05 | 0.28 | 0.13 | 98 | 1004.8 |
| 20260506130054 | 47 | 167 | 0.0 | 0.0 | 0.04 | 0.27 | 0.11 | 98 | 1005.0 |
| 20260506124549 | 47 | 167 | 0.0 | 0.0 | 0.03 | 0.26 | 0.10 | 98 | 1005.1 |
| 20260506123048 | 47 | 167 | 0.0 | 0.0 | 0.03 | 0.25 | 0.09 | 98 | 1005.4 |
| 20260506121546 | 48 | 167 | 0.0 | 0.0 | 0.02 | 0.24 | 0.08 | 98 | 1005.1 |
| 20260506120046 | 48 | 167 | 0.0 | 0.0 | 0.01 | 0.23 | 0.07 | 98 | 1005.2 |
| 20260506114544 | 48 | 167 | 0.0 | 0.0 | 0.02 | 0.23 | 0.07 | 98 | 1005.3 |
| 20260506113043 | 49 | 166 | 0.0 | 0.0 | 0.01 | 0.22 | 0.06 | 98 | 1005.2 |
| 20260506111540 | 49 | 72 | 0.0 | 0.0 | 0.01 | 0.22 | 0.06 | 98 | 1005.3 |
| 20260506110040 | 49 | 115 | 0.0 | 1.7 | 0.01 | 0.22 | 0.06 | 98 | 1005.0 |
| 20260506104546 | 49 | 123 | 0.0 | 0.0 | 0.00 | 0.21 | 0.05 | 98 | 1005.1 |
| 20260506103040 | 49 | 212 | 0.0 | 0.0 | 0.00 | 0.21 | 0.05 | 98 | 1004.9 |
| 20260506101537 | 49 | 95 | 0.0 | 0.0 | 0.00 | 0.21 | 0.05 | 98 | 1004.9 |
| 20260506100039 | 49 | 95 | 0.0 | 0.0 | 0.00 | 0.21 | 0.05 | 98 | 1005.3 |
| 20260506094546 | 49 | 100 | 0.0 | 0.0 | 0.00 | 0.21 | 0.05 | 98 | 1005.0 |
| 20260506093038 | 49 | 61 | 0.0 | 0.0 | 0.00 | 0.21 | 0.05 | 97 | 1005.5 |
| 20260506091533 | 49 | 61 | 0.0 | 0.0 | 0.00 | 0.21 | 0.05 | 97 | 1005.4 |
| 20260506090031 | 49 | 61 | 0.0 | 0.0 | 0.00 | 0.21 | 0.05 | 97 | 1005.4 |
| 20260506084531 | 50 | 60 | 0.0 | 0.0 | 0.00 | 0.21 | 0.05 | 97 | 1005.5 |
| 20260506083028 | 50 | 340 | 0.0 | 0.0 | 0.00 | 0.21 | 0.05 | 97 | 1005.8 |
| 20260506081532 | 50 | 340 | 0.0 | 0.0 | 0.00 | 0.21 | 0.05 | 97 | 1005.8 |
| 20260506073025 | 50 | 46 | 0.0 | 0.0 | 0.01 | 0.21 | 0.05 | 97 | 1005.4 |
| 20260506071524 | 51 | 284 | 0.0 | 0.0 | 0.02 | 0.21 | 0.05 | 97 | 1005.1 |
| 20260506061517 | 51 | 44 | 0.0 | 0.0 | 0.00 | 0.19 | 0.03 | 96 | 1005.6 |
| 20260506044506 | 53 | 218 | 0.0 | 0.0 | 0.02 | 0.17 | 0.01 | 95 | 1005.8 |
| 20260506043005 | 53 | 111 | 0.0 | 0.0 | 0.01 | 0.16 | 0.00 | 94 | 1005.7 |
| 20260506041509 | 54 | 107 | 0.0 | 0.0 | 0.02 | 0.16 | 0.00 | 92 | 1005.6 |
| 20260506040100 | 55 | 39 | 0.0 | 0.0 | 0.03 | 0.16 | 0.00 | 91 | 1005.5 |
| 20260506034556 | 56 | 289 | 0.0 | 0.9 | 0.02 | 0.15 | 0.15 | 91 | 1005.8 |
| 20260506033055 | 56 | 254 | 0.0 | 0.0 | 0.02 | 0.15 | 0.15 | 90 | 1005.0 |
| 20260506031557 | 57 | 251 | 0.0 | 0.9 | 0.01 | 0.14 | 0.14 | 88 | 1004.8 |
| 20260506030048 | 57 | 229 | 0.0 | 0.0 | 0.00 | 0.13 | 0.13 | 86 | 1004.7 |
| 20260506024556 | 58 | 240 | 0.0 | 1.7 | 0.00 | 0.13 | 0.13 | 83 | 1004.7 |
| 20260506023045 | 59 | 220 | 0.0 | 1.7 | 0.00 | 0.13 | 0.13 | 82 | 1004.6 |
| 20260506021544 | 59 | 225 | 0.0 | 0.0 | 0.00 | 0.13 | 0.13 | 76 | 1004.7 |
| 20260506020044 | 59 | 226 | 0.0 | 0.0 | 0.00 | 0.13 | 0.13 | 75 | 1004.6 |
| 20260506014544 | 59 | 252 | 0.0 | 0.9 | 0.00 | 0.13 | 0.13 | 75 | 1004.6 |
| 20260506013043 | 59 | 217 | 0.0 | 2.6 | 0.00 | 0.13 | 0.13 | 75 | 1003.9 |
| 20260506011543 | 59 | 159 | 0.0 | 2.6 | 0.00 | 0.13 | 0.13 | 76 | 1003.9 |
| 20260506010043 | 59 | 188 | 0.0 | 0.0 | 0.00 | 0.13 | 0.13 | 77 | 1003.8 |
| 20260506004541 | 59 | 208 | 0.0 | 5.2 | 0.00 | 0.13 | 0.13 | 77 | 1003.7 |
| 20260506003041 | 58 | 186 | 0.9 | 6.1 | 0.00 | 0.13 | 0.13 | 77 | 1003.6 |
| 20260506001542 | 58 | 198 | 1.7 | 5.2 | 0.00 | 0.13 | 0.13 | 79 | 1003.6 |
| 20260506000040 | 58 | 223 | 0.0 | 2.6 | 0.00 | 0.13 | 0.13 | 82 | 1003.7 |
| 20260505234546 | 59 | 240 | 0.9 | 2.6 | 0.00 | 0.13 | 0.13 | 80 | 1003.7 |
| 20260505233039 | 59 | 292 | 0.0 | 3.5 | 0.00 | 0.13 | 0.13 | 78 | 1003.6 |
| 20260505231550 | 59 | 226 | 0.0 | 3.5 | 0.00 | 0.13 | 0.13 | 78 | 1003.2 |
| 20260505230051 | 59 | 303 | 0.0 | 5.2 | 0.00 | 0.13 | 0.13 | 79 | 1003.1 |
| 20260505224538 | 59 | 280 | 0.0 | 7.0 | 0.00 | 0.13 | 0.13 | 78 | 1003.0 |
| 20260505223037 | 59 | 240 | 0.0 | 6.1 | 0.00 | 0.13 | 0.13 | 79 | 1002.8 |
| 20260505221537 | 59 | 286 | 0.0 | 7.0 | 0.01 | 0.13 | 0.13 | 80 | 1002.5 |
| 20260505220036 | 59 | 249 | 0.9 | 10.4 | 0.02 | 0.13 | 0.13 | 81 | 1003.0 |
| 20260505214536 | 60 | 239 | 0.0 | 5.2 | 0.03 | 0.13 | 0.13 | 78 | 1003.1 |
| 20260505213042 | 61 | 290 | 0.0 | 7.0 | 0.04 | 0.13 | 0.13 | 74 | 1002.2 |